Tracking 32579 objects as of 16-Dec-2025
HD Live streaming from Space Station
objects crossing your sky now

OPS 1570

Track OPS 1570 now!
OPS 1570 is classified as:


NORAD ID: 5851
Int'l Code: 1972-010A
Perigee: 35,881.3 km
Apogee: 35,981.2 km
Inclination: 0.1 °
Period: 1,443.1 minutes
Semi major axis: 42302 km
RCS: Unknown
Launch date: March 1, 1972
Source: United States (US)
Launch site: AIR FORCE EASTERN TEST RANGE (AFETR)
Your satellite tracking list
Your tracking list is empty




NASA's NSSDC Master Catalog

Two Line Element Set (TLE):
1 05851U 72010A   25349.94208025 -.00000306  00000-0  00000-0 0  9992
2 05851   0.1186 216.5131 0011803  57.0554 289.7279  0.99783244 24102
Source of the keplerian elements: McCants